When you browse on this site, cookies collect data to enhance your experience and personalize the content and advertising you see.
Visit our Privacy Policy to learn more. By continuing to use the site, you agree to this use of cookies and data.
  • In Austria
  • List of Countries
  • For 7 days
  • Water Temperature
  • Satellite Maps
  • Weather Map
  • News
  • Weather Widgets
  • user-avatar
    Login

    Hourly Weather Podvoste

    Today, 22 May, Wednesday

    Time Temperature Precipitation Wind Pressure Humidity
    00:00 +15°C° 0 mm 2 mps 744 mmHg 96%
    01:00 +14°C° 0 mm 2 mps 744 mmHg 97%
    02:00 +13°C° 0 mm 2 mps 744 mmHg 97%
    03:00 +13°C° 0 mm 2 mps 744 mmHg 97%
    04:00 +13°C° 0 mm 2 mps 744 mmHg 97%
    05:00 +13°C° 0 mm 1 mps 744 mmHg 97%
    06:00 +14°C° 0 mm 2 mps 744 mmHg 89%
    07:00 +16°C° 0 mm 2 mps 744 mmHg 81%
    08:00 +18°C° 0 mm 2 mps 745 mmHg 72%
    09:00 +19°C° 0 mm 2 mps 744 mmHg 65%
    10:00 +21°C° 0 mm 2 mps 744 mmHg 58%
    11:00 +23°C° 0 mm 2 mps 744 mmHg 51%
    12:00 +23°C° 0.1 mm 2 mps 744 mmHg 51%
    13:00 +23°C° 0.1 mm 2 mps 744 mmHg 50%
    14:00 +24°C° 0.1 mm 1 mps 744 mmHg 50%
    15:00 +24°C° 0.1 mm 1 mps 744 mmHg 51%
    16:00 +24°C° 0.1 mm 1 mps 743 mmHg 51%
    17:00 +24°C° 0.1 mm 1 mps 743 mmHg 52%
    18:00 +22°C° 0.1 mm 1 mps 743 mmHg 62%
    19:00 +20°C° 0.1 mm 1 mps 743 mmHg 71%
    20:00 +18°C° 0.1 mm 1 mps 743 mmHg 80%
    21:00 +16°C° 0 mm 1 mps 743 mmHg 82%
    22:00 +14°C° 0 mm 0 mps 743 mmHg 84%
    23:00 +14°C° 0 mm 0 mps 743 mmHg 86%

    Tomorrow, 23 May, Thursday

    Time Temperature Precipitation Wind Pressure Humidity
    00:00 +13°C° 0 mm 0 mps 744 mmHg 87%
    01:00 +13°C° 0 mm 0 mps 744 mmHg 88%
    02:00 +13°C° 0 mm 0 mps 744 mmHg 88%
    03:00 +13°C° 0 mm 0 mps 744 mmHg 89%
    04:00 +13°C° 0 mm 0 mps 744 mmHg 89%
    05:00 +13°C° 0 mm 0 mps 744 mmHg 89%
    06:00 +15°C° 0 mm 0 mps 744 mmHg 83%
    07:00 +19°C° 0 mm 1 mps 744 mmHg 76%
    08:00 +21°C° 0 mm 1 mps 744 mmHg 70%
    09:00 +22°C° 0 mm 1 mps 744 mmHg 64%
    10:00 +24°C° 0 mm 1 mps 744 mmHg 58%
    11:00 +24°C° 0 mm 0 mps 744 mmHg 52%
    12:00 +26°C° 0 mm 1 mps 744 mmHg 49%
    13:00 +26°C° 0 mm 1 mps 744 mmHg 47%
    14:00 +26°C° 0 mm 1 mps 743 mmHg 44%
    15:00 +26°C° 0 mm 1 mps 743 mmHg 46%
    16:00 +26°C° 0 mm 1 mps 743 mmHg 47%
    17:00 +26°C° 0 mm 1 mps 743 mmHg 49%
    18:00 +24°C° 0 mm 1 mps 743 mmHg 57%
    19:00 +21°C° 0 mm 2 mps 743 mmHg 65%
    20:00 +19°C° 0 mm 2 mps 743 mmHg 73%
    21:00 +19°C° 0 mm 1 mps 743 mmHg 77%
    22:00 +18°C° 0 mm 1 mps 743 mmHg 81%
    23:00 +16°C° 0 mm 1 mps 744 mmHg 84%

    Day after tomorrow, 24 May, Friday

    Time Temperature Precipitation Wind Pressure Humidity
    00:00 +16°C° 0 mm 1 mps 744 mmHg 86%
    01:00 +15°C° 0 mm 1 mps 744 mmHg 88%
    02:00 +15°C° 0 mm 1 mps 744 mmHg 89%
    03:00 +15°C° 0 mm 1 mps 744 mmHg 90%
    04:00 +15°C° 0 mm 1 mps 744 mmHg 91%
    05:00 +15°C° 0 mm 1 mps 744 mmHg 91%
    06:00 +18°C° 0 mm 1 mps 744 mmHg 85%
    07:00 +20°C° 0 mm 1 mps 744 mmHg 78%
    08:00 +22°C° 0 mm 1 mps 744 mmHg 72%
    09:00 +21°C° 0.2 mm 2 mps 744 mmHg 70%
    10:00 +23°C° 0.2 mm 2 mps 744 mmHg 68%
    11:00 +24°C° 0.2 mm 2 mps 744 mmHg 66%
    12:00 +24°C° 0.5 mm 3 mps 744 mmHg 66%
    13:00 +24°C° 0.5 mm 3 mps 744 mmHg 66%
    14:00 +24°C° 0.5 mm 3 mps 744 mmHg 66%
    15:00 +24°C° 0.5 mm 3 mps 744 mmHg 69%
    16:00 +22°C° 0.5 mm 3 mps 743 mmHg 72%
    17:00 +22°C° 0.5 mm 3 mps 743 mmHg 75%
    18:00 +20°C° 0.1 mm 3 mps 743 mmHg 80%
    19:00 +19°C° 0.1 mm 3 mps 743 mmHg 84%
    20:00 +17°C° 0.1 mm 3 mps 743 mmHg 89%
    21:00 +16°C° 0 mm 2 mps 743 mmHg 91%
    22:00 +16°C° 0 mm 2 mps 743 mmHg 92%
    23:00 +15°C° 0 mm 2 mps 743 mmHg 94%

    25 May, Saturday

    Time Temperature Precipitation Wind Pressure Humidity
    00:00 +15°C° 0 mm 2 mps 743 mmHg 95%
    01:00 +14°C° 0 mm 2 mps 743 mmHg 96%
    02:00 +13°C° 0 mm 3 mps 743 mmHg 97%
    03:00 +13°C° 0.5 mm 3 mps 743 mmHg 96%
    04:00 +12°C° 0.5 mm 3 mps 743 mmHg 95%
    05:00 +12°C° 0.5 mm 3 mps 743 mmHg 95%
    06:00 +13°C° 0.1 mm 3 mps 743 mmHg 90%
    07:00 +13°C° 0.1 mm 4 mps 744 mmHg 85%
    08:00 +14°C° 0.1 mm 4 mps 744 mmHg 80%
    09:00 +17°C° 0 mm 4 mps 744 mmHg 68%
    10:00 +17°C° 0 mm 5 mps 744 mmHg 56%
    11:00 +20°C° 0 mm 5 mps 744 mmHg 43%
    12:00 +20°C° 0 mm 5 mps 744 mmHg 43%
    13:00 +21°C° 0 mm 4 mps 743 mmHg 44%
    14:00 +22°C° 0 mm 4 mps 743 mmHg 44%
    15:00 +22°C° 0 mm 4 mps 743 mmHg 48%
    16:00 +21°C° 0 mm 4 mps 743 mmHg 52%
    17:00 +21°C° 0 mm 4 mps 743 mmHg 56%
    18:00 +19°C° 0.4 mm 3 mps 743 mmHg 67%
    19:00 +17°C° 0.4 mm 3 mps 743 mmHg 78%
    20:00 +16°C° 0.4 mm 2 mps 743 mmHg 89%
    21:00 +15°C° 0 mm 2 mps 743 mmHg 91%
    22:00 +14°C° 0 mm 2 mps 743 mmHg 92%
    23:00 +12°C° 0 mm 3 mps 743 mmHg 94%

    26 May, Sunday

    Time Temperature Precipitation Wind Pressure Humidity
    00:00 +12°C° 0 mm 3 mps 743 mmHg 95%
    01:00 +11°C° 0 mm 3 mps 743 mmHg 95%
    02:00 +10°C° 0 mm 3 mps 744 mmHg 96%
    03:00 +10°C° 0 mm 2 mps 744 mmHg 96%
    04:00 +10°C° 0 mm 2 mps 744 mmHg 95%
    05:00 +9°C° 0 mm 2 mps 744 mmHg 95%
    06:00 +10°C° 0.1 mm 2 mps 744 mmHg 92%
    07:00 +11°C° 0.1 mm 3 mps 744 mmHg 88%
    08:00 +12°C° 0.1 mm 3 mps 744 mmHg 84%
    09:00 +13°C° 0.2 mm 4 mps 744 mmHg 79%
    10:00 +14°C° 0.2 mm 5 mps 744 mmHg 73%
    11:00 +15°C° 0.2 mm 5 mps 744 mmHg 68%
    12:00 +15°C° 0.1 mm 5 mps 743 mmHg 67%
    13:00 +15°C° 0.1 mm 5 mps 743 mmHg 67%
    14:00 +15°C° 0.1 mm 5 mps 743 mmHg 66%
    15:00 +15°C° 0.1 mm 5 mps 743 mmHg 66%
    16:00 +16°C° 0.1 mm 5 mps 742 mmHg 65%
    17:00 +16°C° 0.1 mm 6 mps 742 mmHg 65%
    18:00 +14°C° 0.1 mm 5 mps 742 mmHg 70%
    19:00 +13°C° 0.1 mm 4 mps 742 mmHg 75%
    20:00 +12°C° 0.1 mm 4 mps 742 mmHg 80%
    21:00 +12°C° 0 mm 4 mps 742 mmHg 81%
    22:00 +11°C° 0 mm 4 mps 743 mmHg 82%
    23:00 +11°C° 0 mm 4 mps 743 mmHg 83%

    27 May, Monday

    Time Temperature Precipitation Wind Pressure Humidity
    00:00 +10°C° 0.1 mm 4 mps 743 mmHg 84%
    01:00 +10°C° 0.1 mm 4 mps 743 mmHg 84%
    02:00 +10°C° 0.1 mm 4 mps 743 mmHg 85%
    03:00 +10°C° 0.1 mm 4 mps 743 mmHg 86%
    04:00 +8°C° 0.1 mm 4 mps 743 mmHg 87%
    05:00 +7°C° 0.1 mm 4 mps 744 mmHg 88%
    06:00 +8°C° 0 mm 5 mps 744 mmHg 79%
    07:00 +9°C° 0 mm 5 mps 744 mmHg 70%
    08:00 +10°C° 0 mm 6 mps 744 mmHg 62%
    09:00 +11°C° 0 mm 6 mps 745 mmHg 59%
    10:00 +14°C° 0 mm 6 mps 745 mmHg 56%
    11:00 +15°C° 0 mm 6 mps 745 mmHg 53%
    12:00 +16°C° 0 mm 6 mps 745 mmHg 53%
    13:00 +16°C° 0 mm 6 mps 745 mmHg 52%
    14:00 +17°C° 0 mm 6 mps 745 mmHg 52%
    15:00 +17°C° 0 mm 5 mps 745 mmHg 52%
    16:00 +17°C° 0 mm 5 mps 745 mmHg 53%
    17:00 +17°C° 0 mm 5 mps 745 mmHg 53%
    18:00 +17°C° 0 mm 4 mps 746 mmHg 60%
    19:00 +16°C° 0 mm 3 mps 746 mmHg 67%
    20:00 +14°C° 0 mm 1 mps 746 mmHg 74%
    21:00 +14°C° 0 mm 2 mps 745 mmHg 78%
    22:00 +14°C° 0 mm 2 mps 745 mmHg 81%
    23:00 +13°C° 0 mm 3 mps 745 mmHg 84%
    Show more